sat.trackr.live / text

‹ back to catalog

STARLINK-1193

NORAD 45100 · 2020-006BJ

PAYLOAD ACTIVE UNKNOWN

§ Identity

Operator
Country
US
Launch date
2020-01-29
Launch site
AFETR
Launch vehicle
Mass (kg)
RCS (m²)

Purposes: comms

External: N2YO · Heavens-Above · Gunter

§ Orbital elements

Epoch: 2026-05-24T22:24:07.013664Z

Period
91.93 min
Inclination
53.0469°
Eccentricity
0.0003775
Mean motion
15.66369227 rev/d
Perigee alt
366.8 km
Apogee alt
371.9 km
Semi-major
6,747.4 km
B*
4.0786e-4
RAAN
218.0971°
Arg perigee
289.7439°
Mean anomaly
70.3169°
Rev number
34,916

§ Raw data

STARLINK-11931 45100U 20006BJ  26144.93341451  .00042781  00000+0  40786-3 0  99942 45100  53.0469 218.0971 0003775 289.7439  70.3169 15.66369227349167

JSON: /api/v1/satellites/45100 · /tle

For live sub-satellite position, see the globe view (requires WebGL).

§ Visibility from observer

Set your observer location to see the next 7 days of passes ≥ 10°. The values pass through the URL so the page stays shareable.

No JS? Fill the form by hand. The geolocation button needs JavaScript.